Eau Claire, WI

8:53 PM CDT on March 26, 2017 (GMT -0500)
Chippewa Valley Regional

Weather History for KEAU - August, 2014

Change the Weather History Date:

Friday, August 1, 2014

  Actual Average Record
Temperature  
Mean Temperature 73 °F 71 °F  
Max Temperature 84 °F 82 °F 104 °F (1988)
Min Temperature 61 °F 60 °F 46 °F (1920)
Degree Days  
Heating Degree Days 0 0  
Month to date heating degree days 0 0  
Since 1 June heating degree days 43 73  
Since 1 July heating degree days 18 11  
Cooling Degree Days 8 6  
Month to date cooling degree days 8 6  
Year to date cooling degree days 315 372  
Since 1 June cooling degree days 280 340  
Growing Degree Days 22 (Base 50)    
Moisture  
Dew Point 62 °F    
Average Humidity 70    
Maximum Humidity 93    
Minimum Humidity 46    
Precipitation  
Precipitation T in 0.15 in 3.63 in (1967)
Month to date precipitation T 0.15  
Year to date precipitation 26.38 17.80  
Snow  
Snow 0.00 in 0.00 in 0.00 in ()
Month to date snowfall 0.0 0.0  
Since 1 June snowfall 0.0 0.0  
Since 1 July snowfall 0.0 0.0  
Snow Depth 0.00 in    
Sea Level Pressure  
Sea Level Pressure 30.03 in    
Wind  
Wind Speed 3 mph (WSW)    
Max Wind Speed 10 mph    
Max Gust Speed 17 mph    
Visibility 10 miles    
Events Thunderstorm    
T = Trace of Precipitation, MM = Missing Value Source: NWS Daily Summary

Daily Weather History Graph

Daily Weather History Graph

Search for Another Location

Airport or City:

Trip Planner

Search our weather history database for the weather conditions in past years. The results will help you decide how hot, cold, wet, or windy it might be!

Date:

Astronomy

Aug. 01, 2014 Rise Set
Actual Time 5:51 AM CDT 8:32 PM CDT
Civil Twilight 5:18 AM CDT 9:05 PM CDT
Nautical Twilight 4:35 AM CDT 9:47 PM CDT
Astronomical Twilight 3:46 AM CDT 10:36 PM CDT
Moon 11:32 AM CDT (8/1) 10:59 PM CDT (8/1)
Length of Visible Light 15h 47m
Length of Day
14h 40m
Waxing Crescent, 28% of the Moon is Illuminated
Aug 1
Waxing Crescent
Aug 3
First Quarter
Aug 10
Full
Aug 17
Last Quarter
Aug 25
New

Hourly Weather History & Observations

Time (CDT) Temp. Heat Index Dew Point Humidity Pressure Visibility Wind Dir Wind Speed Gust Speed Precip Events Conditions
12:56 AM 66.0 °F - 60.1 °F 81% 29.99 in 10.0 mi Calm Calm - N/A Thunderstorm Clear
1:14 AM 66.0 °F - 61.0 °F 84% 30.00 in 10.0 mi Calm Calm - N/A   Scattered Clouds
1:35 AM 64.9 °F - 61.0 °F 87% 30.00 in 10.0 mi Calm Calm - N/A Thunderstorm Scattered Clouds
1:56 AM 64.9 °F - 61.0 °F 87% 30.00 in 10.0 mi SE 3.5 mph - N/A   Clear
2:38 AM 63.0 °F - 60.1 °F 90% 30.01 in 10.0 mi Calm Calm - N/A Thunderstorm Clear
2:56 AM 63.0 °F - 60.1 °F 90% 30.00 in 10.0 mi Calm Calm - N/A Thunderstorm Partly Cloudy
3:13 AM 62.1 °F - 60.1 °F 93% 30.01 in 10.0 mi ENE 4.6 mph - N/A   Mostly Cloudy
3:56 AM 63.0 °F - 61.0 °F 93% 30.00 in 10.0 mi Calm Calm - N/A   Partly Cloudy
5:56 AM 62.1 °F - 61.0 °F 96% 30.02 in 10.0 mi SW 4.6 mph - N/A   Clear
6:56 AM 63.0 °F - 61.0 °F 93% 30.03 in 10.0 mi WSW 3.5 mph - N/A   Clear
8:56 AM 69.1 °F - 61.0 °F 75% 30.04 in 10.0 mi WSW 5.8 mph - N/A   Clear
9:56 AM 73.0 °F - 62.1 °F 68% 30.04 in 10.0 mi Calm Calm - N/A   Clear
10:56 AM 75.0 °F - 63.0 °F 66% 30.04 in 10.0 mi West 5.8 mph - N/A   Clear
11:56 AM 78.1 °F - 64.0 °F 62% 30.05 in 10.0 mi SW 3.5 mph - N/A   Clear
2:45 PM 79.0 °F - 60.1 °F 52% 30.05 in 10.0 mi NNW 3.5 mph - N/A Thunderstorm Thunderstorm
2:56 PM 79.0 °F - 61.0 °F 54% 30.03 in 10.0 mi North 4.6 mph - N/A   Mostly Cloudy
3:56 PM 82.0 °F 82.7 °F 61.0 °F 49% 30.02 in 10.0 mi NNW 5.8 mph - 0.00 in   Mostly Cloudy
6:56 PM 80.1 °F 81.2 °F 62.1 °F 54% 30.04 in 10.0 mi NE 4.6 mph - N/A   Clear
7:56 PM 75.9 °F - 63.0 °F 64% 30.05 in 10.0 mi ENE 3.5 mph - N/A   Clear
8:56 PM 70.0 °F - 64.9 °F 84% 30.06 in 10.0 mi Calm Calm - N/A   Clear
9:56 PM 66.9 °F - 64.0 °F 90% 30.08 in 9.0 mi Calm Calm - N/A   Clear
10:56 PM 68.0 °F - 64.0 °F 87% 30.08 in 10.0 mi SSE 3.5 mph - N/A   Clear
11:56 PM 66.0 °F - 63.0 °F 90% 30.07 in 10.0 mi SSE 3.5 mph - N/A   Clear